User: anonymous   Login
Location: Unspecified
(0.0000°N, 0.0000°E)
Time: 08:42:29
(UTC+00:00)
Language:

COSMOS 2496 - Orbit

View from above orbital plane
View from above orbital plane
View from above satellite
View from above satellite

Ground track
Ground track

The orbit data is extracted from the following two-line orbital elements,

1 39761U 14028A   17293.65270213  .00000010  00000-0  00000+0 0  9999
2 39761  82.4419 289.0654 0020572 122.2482 238.0599 12.42871134154837
Epoch (UTC): 20 October 2017 15:39:53
Eccentricity: 0.0020572
inclination: 82.4419°
perigee height: 1478 km
apogee height: 1510 km
right ascension of ascending node: 289.0654°
argument of perigee: 122.2482°
revolutions per day: 12.42871134
mean anomaly at epoch: 238.0599°
orbit number at epoch: 15483

The dashed part of the orbit path shows where the satellite is in the earth's shadow,  

DLR